DELTA 1 DEB, 21326

Orbit data source: Space-Track

DELTA 1 DEB, 21326 is space debris in SSO originally from a launch on Thu, 12 Jun 1975 UTC launched from the Air Force Western Test Range (AFWTR). Debris objects in space refer to the collection of defunct objects orbiting the Earth. Examples of debris include non-operational satellites, rocket bodies, and fragments generated from explosions, collisions, or faulty payload assembly.

Loading next visibility...
Identifier
21326, 1975-052AU
Orbit
SSO
Country
Flag of USUS
Related business
Manufacturer
Unknown
Mission
Spacecraft
Bus & Motor
Unknown
Mass
Unknown
Launch date (UTC)
1975-06-12 (50 years ago)
Launch vehicle
Unknown
Launch site
Air Force Western Test Range (AFWTR)
Object type
Payload
Rocket body
Debris
Shape & HBR
Unknown shape, 0.1 m
Radar Cross Section
Small (<0.1 m²)

Expand to show TLE details & history
Last TLE update: 15 hours ago

TLE from 15 hours ago
0 DELTA 1 DEB
1 21326U 75052AU  25291.93283745  .00000114  00000-0  28219-3 0  9994
2 21326  99.8480 181.5658 0030442 282.9406 140.7414 13.41769738683627
Epoch: 2025-10-18T22:23Z
TLE epoch observation values (Epoch: 2025-10-18T22:23:17.155Z)
Latitude
62.31886°
Longitude
158.86599°
Altitude
1,130.955 km
Speed
7.284 km/s
True Right ascension
10h 49m 22s
True Declination
62° 11' 03"
Sunlit
Object was in daylight at epoch
Visualization orbit readout
Latitude
Unknown
Longitude
Unknown
Altitude
Unknown
Speed
Unknown
Apparent Right ascension
Unknown
Apparent Declination
Unknown
Sunlit
N/A
Visualization observer readout
Local Sidereal Time
08:37:24
Azimuth
Unknown
Elevation
Unknown
Doppler factor
Unknown
Orbital elements
Apogee altitude
1,122.779 km
Perigee altitude
1,077.249 km
Semi-major axis
7,478.151 km
Eccentricity
0.00304
Inclination
99.848°
RAAN
181.5658°
Arg. of periapsis
282.9406°
True anomaly
140.9615°
Mean anomaly
140.7414°
Eccentric anomaly
140.85152°
Mean motion
3.35623 °/min
Orbital period
107.26 mins
BSTAR
0.00028219
Loading maneuver chart data...
Computing Atmospheric mass density...

Documentation

Showing up to 5 results
|